User: anonymous   Login
Location: Bishop's University Astronomical Observatory
(45.3661°N, 71.8475°W)
Time: 02:20:26
(UTC-04:00)
Language:

Meteor 2-5 Rocket - Orbit

View from above orbital plane
View from above orbital plane
View from above satellite
View from above satellite

Ground track
Ground track

The orbit data is extracted from the following two-line orbital elements,

1 11608U 79095B   17080.92919496 +.00000017 +00000-0 +26177-5 0  9997
2 11608 081.2124 295.6898 0055167 048.6498 311.9397 14.06115514917565
Epoch (UTC): 21 March 2017 22:18:02
Eccentricity: 0.0055167
inclination: 81.2124°
perigee height: 832 km
apogee height: 912 km
right ascension of ascending node: 295.6898°
argument of perigee: 48.6498°
revolutions per day: 14.06115514
mean anomaly at epoch: 311.9397°
orbit number at epoch: 91756

The dashed part of the orbit path shows where the satellite is in the earth's shadow,  

DLR